This is the latest recevied weather packets stored in our database for station/object KN6DHD. If no packets are shown the sender has not sent any weather packets the latest 10 day(s).
| Time | Temp. | Humidity | Pressure | Rain* | Wind** | Luminosity | Snow |
|---|---|---|---|---|---|---|---|
| 1777906029 | 12.78° C | 91% | 1015.4 hPa | 0 mm | - | 60 W/m² | - |
| 1777905726 | 12.78° C | 91% | 1015.4 hPa | 0 mm | - | 31 W/m² | - |
| 1777905423 | 12.78° C | 91% | 1015.3 hPa | 0 mm | - | 26 W/m² | - |
| 1777905121 | 12.78° C | 91% | 1015.4 hPa | 0 mm | - | 20 W/m² | - |
| 1777904817 | 12.78° C | 90% | 1015.1 hPa | 0 mm | - | 16 W/m² | - |
| 1777904515 | 12.78° C | 90% | 1015.1 hPa | 0 mm | - | 12 W/m² | - |
| 1777904211 | 12.78° C | 89% | 1015.3 hPa | 0 mm | - | 10 W/m² | - |
| 1777903908 | 12.78° C | 89% | 1015 hPa | 0 mm | - | 7 W/m² | - |
| 1777903605 | 12.78° C | 89% | 1015 hPa | 0 mm | - | 6 W/m² | - |
| 1777903300 | 12.78° C | 90% | 1015 hPa | 0 mm | - | 5 W/m² | - |
| 1777902998 | 12.78° C | 90% | 1014.9 hPa | 0 mm | - | 6 W/m² | - |
| 1777902694 | 12.78° C | 90% | 1015.1 hPa | 0 mm | - | 7 W/m² | - |
| 1777902392 | 12.78° C | 90% | 1015.2 hPa | 0 mm | - | 3 W/m² | - |
| 1777902088 | 12.78° C | 91% | 1015.2 hPa | 0 mm | - | 3 W/m² | - |
| 1777901787 | 12.78° C | 91% | 1015.1 hPa | 0 mm | - | 2 W/m² | - |
| 1777901483 | 12.78° C | 91% | 1015.3 hPa | 0 mm | - | 0 W/m² | - |
| 1777901181 | 12.78° C | 92% | 1015.3 hPa | 0 mm | - | 0 W/m² | - |
| 1777900879 | 12.78° C | 92% | 1015.2 hPa | 0 mm | - | 0 W/m² | - |
| 1777900576 | 12.22° C | 92% | 1015.1 hPa | 0 mm | - | 0 W/m² | - |
| 1777900272 | 12.22° C | 92% | 1014.9 hPa | 0 mm | - | 0 W/m² | - |
| 1777899969 | 12.22° C | 92% | 1015.1 hPa | 0 mm | - | 0 W/m² | - |
| 1777899666 | 12.22° C | 92% | 1015.2 hPa | 0 mm | - | 0 W/m² | - |
| 1777899364 | 12.22° C | 92% | 1015.1 hPa | 0 mm | - | 0 W/m² | - |
| 1777899061 | 12.22° C | 92% | 1015 hPa | 0 mm | - | 0 W/m² | - |
| 1777898757 | 12.22° C | 92% | 1014.9 hPa | 0 mm | - | 0 W/m² | - |
* Rain latest hour (hover to see other rain measurements)
** Current wind speed in m/s (hover to see current wind gust speed)